Weather History for K1A6 - May, 2013

Change the Weather History Date:

Thursday, May 16, 2013

  Actual Average (KLOZ) Record (KLOZ)
Temperature  
Mean Temperature 66 °F 65 °F  
Max Temperature 81 °F 76 °F 89 °F (1962)
Min Temperature 53 °F 53 °F 31 °F (1997)
Degree Days  
Heating Degree Days 0 3  
Month to date heating degree days 64  
Since 1 July heating degree days 4165  
Cooling Degree Days 2 3  
Month to date cooling degree days 30  
Year to date cooling degree days 56  
Growing Degree Days 16 (Base 50)    
Moisture  
Dew Point 56 °F    
Average Humidity 72    
Maximum Humidity 94    
Minimum Humidity 40    
Precipitation  
Precipitation 0.00 in 0.17 in 1.39 in (2004)
Month to date precipitation 2.67  
Year to date precipitation 18.02  
Sea Level Pressure  
Sea Level Pressure 30.03 in    
Wind  
Wind Speed 1 mph (WSW)    
Max Wind Speed 8 mph    
Max Gust Speed -    
Visibility 10 miles    
Events Rain    
T = Trace of Precipitation, MM = Missing Value Source: NWS Daily Summary

Daily Weather History Graph

Daily Weather History Graph

Search for Another Location

Airport or City:

Trip Planner

Search our weather history database for the weather conditions in past years. The results will help you decide how hot, cold, wet, or windy it might be!

Date:

Astronomy

May. 16, 2013 Rise Set
Actual Time 5:26 AM CDT 7:36 PM CDT
Civil Twilight 4:57 AM CDT 8:05 PM CDT
Nautical Twilight 4:22 AM CDT 8:40 PM CDT
Astronomical Twilight 3:44 AM CDT 9:19 PM CDT
Moon 10:56 AM CDT (5/16) No Moon Set
Length of Visible Light 15h 07m
Length of Day
14h 09m
Waxing Crescent, 36% of the Moon is Illuminated
May 16
Waxing Crescent
May 17
First Quarter
May 24
Full
May 31
Last Quarter
Jun 8
New

Hourly Weather History & Observations

Time (CDT) Temp. Heat Index Dew Point Humidity Pressure Visibility Wind Dir Wind Speed Gust Speed Precip Events Conditions
12:15 AM 58.8 °F - 54.0 °F 84% 30.02 in 10.0 mi Calm Calm - N/A   Clear
12:35 AM 57.6 °F - 53.4 °F 86% 30.02 in 10.0 mi Calm Calm - N/A   Clear
12:55 AM 58.1 °F - 53.4 °F 84% 30.02 in 10.0 mi Calm Calm - N/A   Clear
1:15 AM 57.7 °F - 53.6 °F 86% 30.02 in 10.0 mi Calm Calm - N/A   Clear
1:35 AM 56.8 °F - 52.9 °F 87% 30.02 in 10.0 mi Calm Calm - N/A   Clear
1:55 AM 56.5 °F - 53.1 °F 88% 30.02 in 10.0 mi Calm Calm - N/A   Clear
2:15 AM 55.8 °F - 52.5 °F 89% 30.01 in 10.0 mi Calm Calm - N/A   Clear
2:35 AM 55.6 °F - 52.5 °F 89% 30.01 in 10.0 mi Calm Calm - N/A   Clear
2:55 AM 55.8 °F - 52.9 °F 90% 30.01 in 10.0 mi Calm Calm - N/A   Clear
3:15 AM 55.6 °F - 52.7 °F 90% 30.01 in 10.0 mi Calm Calm - N/A   Clear
3:35 AM 55.2 °F - 52.7 °F 91% 30.01 in 10.0 mi Calm Calm - N/A   Clear
3:55 AM 55.0 °F - 52.2 °F 90% 30.02 in 10.0 mi Calm Calm - N/A   Clear
4:15 AM 55.4 °F - 52.5 °F 90% 30.02 in 10.0 mi Calm Calm - N/A   Clear
4:35 AM 54.5 °F - 51.8 °F 91% 30.03 in 10.0 mi Calm Calm - N/A   Clear
4:55 AM 54.3 °F - 51.6 °F 91% 30.03 in 10.0 mi Calm Calm - N/A   Clear
5:15 AM 54.0 °F - 51.8 °F 92% 30.03 in 10.0 mi Calm Calm - N/A   Clear
5:35 AM 53.6 °F - 52.0 °F 94% 30.04 in 10.0 mi Calm Calm - N/A   Clear
5:55 AM 53.6 °F - 51.8 °F 94% 30.04 in 10.0 mi Calm Calm - N/A   Clear
6:15 AM 54.3 °F - 52.2 °F 92% 30.04 in 10.0 mi Calm Calm - N/A   Clear
6:35 AM 55.2 °F - 52.9 °F 92% 30.05 in 10.0 mi Calm Calm - N/A   Clear
6:55 AM 56.7 °F - 53.6 °F 89% 30.05 in 10.0 mi Calm Calm - N/A   Clear
7:15 AM 58.1 °F - 53.8 °F 86% 30.06 in 10.0 mi Calm Calm - N/A   Clear
7:35 AM 59.0 °F - 54.3 °F 84% 30.06 in 10.0 mi Calm Calm - N/A   Clear
7:55 AM 60.8 °F - 55.4 °F 82% 30.07 in 10.0 mi Calm Calm - N/A   Clear
8:15 AM 61.7 °F - 55.6 °F 80% 30.07 in 10.0 mi Calm Calm - N/A   Clear
8:35 AM 63.1 °F - 56.1 °F 78% 30.07 in 10.0 mi Calm Calm - N/A   Clear
8:55 AM 66.4 °F - 57.4 °F 73% 30.07 in 10.0 mi Calm Calm - N/A   Clear
9:15 AM 72.1 °F - 58.5 °F 62% 30.07 in 10.0 mi Calm Calm - N/A   Clear
9:35 AM 73.4 °F - 55.9 °F 54% 30.07 in 10.0 mi WSW 4.6 mph - N/A   Clear
9:55 AM 74.1 °F - 55.0 °F 51% 30.06 in 10.0 mi Calm Calm - N/A   Clear
10:15 AM 74.8 °F - 55.6 °F 51% 30.06 in 10.0 mi West 5.8 mph - N/A   Clear
10:35 AM 76.5 °F - 55.6 °F 48% 30.06 in 10.0 mi West 3.5 mph - N/A   Clear
10:55 AM 76.6 °F - 55.9 °F 49% 30.06 in 10.0 mi WNW 3.5 mph - N/A   Clear
11:15 AM 77.0 °F - 56.5 °F 49% 30.05 in 10.0 mi WSW 4.6 mph - N/A   Clear
11:35 AM 77.7 °F - 55.4 °F 46% 30.05 in 10.0 mi SSW 3.5 mph - N/A   Clear
11:55 AM 77.4 °F - 55.2 °F 46% 30.04 in 10.0 mi SW 4.6 mph - N/A   Clear
12:15 PM 77.5 °F - 55.8 °F 47% 30.03 in 10.0 mi SSW 4.6 mph - N/A   Clear
12:35 PM 79.0 °F - 53.1 °F 40% 30.03 in 10.0 mi SW 8.1 mph - N/A   Clear
12:55 PM 79.0 °F - 52.9 °F 40% 30.02 in 10.0 mi SW 4.6 mph - N/A   Clear
1:15 PM 79.2 °F - 54.5 °F 42% 30.02 in 10.0 mi Calm Calm - N/A   Clear
1:35 PM 79.9 °F - 54.5 °F 41% 30.02 in 10.0 mi Calm Calm - N/A   Clear
2:15 PM 79.2 °F - 58.6 °F 49% 30.01 in 10.0 mi SSW 5.8 mph - N/A   Mostly Cloudy
2:35 PM 79.7 °F - 57.9 °F 47% 30.01 in 10.0 mi SW 4.6 mph - N/A   Mostly Cloudy
2:55 PM 79.0 °F - 57.4 °F 47% 30.01 in 10.0 mi NW 3.5 mph - N/A   Overcast
3:15 PM 78.6 °F - 57.6 °F 48% 30.01 in 10.0 mi West 3.5 mph - N/A   Overcast
3:35 PM 79.3 °F - 58.6 °F 49% 30.01 in 10.0 mi NNW 4.6 mph - N/A   Overcast
3:55 PM 80.6 °F 81.0 °F 58.8 °F 47% 30.00 in 10.0 mi WNW 6.9 mph - N/A   Mostly Cloudy
4:15 PM 78.3 °F - 57.0 °F 48% 30.00 in 10.0 mi Calm Calm - N/A   Mostly Cloudy
4:35 PM 78.3 °F - 57.0 °F 48% 30.00 in 10.0 mi Calm Calm - N/A   Mostly Cloudy
5:15 PM 78.4 °F - 57.9 °F 49% 29.99 in 10.0 mi Calm Calm - N/A   Overcast
5:35 PM 78.3 °F - 57.9 °F 49% 29.98 in 10.0 mi Calm Calm - N/A   Overcast
5:55 PM 78.3 °F - 54.1 °F 43% 29.99 in 10.0 mi NNW 5.8 mph - N/A   Overcast
6:15 PM 77.5 °F - 51.1 °F 40% 30.00 in 10.0 mi WNW 3.5 mph - N/A   Overcast
6:35 PM 71.4 °F - 58.6 °F 64% 30.00 in 10.0 mi SW 5.8 mph - N/A   Overcast
6:55 PM 69.4 °F - 61.0 °F 74% 30.02 in 10.0 mi WSW 3.5 mph - N/A   Scattered Clouds
7:15 PM 70.0 °F - 61.2 °F 73% 30.02 in 10.0 mi Calm Calm - N/A   Mostly Cloudy
7:35 PM 68.4 °F - 62.1 °F 80% 30.02 in 10.0 mi Calm Calm - N/A Rain Light Rain
7:55 PM 66.6 °F - 62.8 °F 88% 30.03 in 10.0 mi Calm Calm - N/A   Mostly Cloudy
8:15 PM 66.7 °F - 61.9 °F 84% 30.03 in 10.0 mi WSW 3.5 mph - N/A   Overcast
8:35 PM 65.5 °F - 62.1 °F 89% 30.04 in 10.0 mi SW 5.8 mph - N/A   Mostly Cloudy
8:55 PM 64.4 °F - 61.2 °F 89% 30.05 in 10.0 mi Calm Calm - N/A   Mostly Cloudy
9:15 PM 64.4 °F - 60.8 °F 88% 30.05 in 10.0 mi West 4.6 mph - N/A   Mostly Cloudy
9:35 PM 64.4 °F - 60.1 °F 86% 30.06 in 10.0 mi SSW 3.5 mph - N/A   Scattered Clouds
9:55 PM 63.7 °F - 61.2 °F 91% 30.06 in 10.0 mi Calm Calm - N/A   Scattered Clouds
10:15 PM 63.1 °F - 60.1 °F 90% 30.05 in 10.0 mi Calm Calm - N/A   Clear
10:35 PM 63.0 °F - 59.7 °F 89% 30.05 in 10.0 mi Calm Calm - N/A   Clear
10:55 PM 62.6 °F - 60.8 °F 94% 30.05 in 10.0 mi Calm Calm - N/A   Clear
11:15 PM 62.1 °F - 59.4 °F 91% 30.05 in 10.0 mi Calm Calm - N/A   Clear
11:35 PM 61.2 °F - 59.0 °F 93% 30.05 in 10.0 mi Calm Calm - N/A   Clear
11:55 PM 61.0 °F - 58.3 °F 91% 30.05 in 10.0 mi Calm Calm - N/A   Clear